| time (UTC) | temp F | wind direction | speed knots | gust knots | rain 1hr in | rain 24hr in | rain mn in | humidity % | barometer mb |
| 20260504082005 | 64 | 360 | 0.0 | 7.8 | 0.00 | 0.00 | 0.00 | 68 | 1014.6 |
| 20260504081526 | 64 | 180 | 0.0 | 7.8 | 0.00 | 0.00 | 0.00 | 68 | 1014.6 |
| 20260504081006 | 64 | 360 | 0.9 | 5.2 | 0.00 | 0.00 | 0.00 | 67 | 1014.6 |
| 20260504080510 | 64 | 288 | 0.0 | 5.2 | 0.00 | 0.00 | 0.00 | 67 | 1014.6 |
| 20260504050507 | 68 | 360 | 0.9 | 4.3 | 0.00 | 0.00 | 0.00 | 60 | 1016.5 |
| 20260504050021 | 68 | 202 | 0.0 | 2.6 | 0.00 | 0.00 | 0.00 | 60 | 1016.5 |
| 20260504045507 | 68 | 240 | 0.0 | 1.7 | 0.00 | 0.00 | 0.00 | 60 | 1016.6 |
| 20260504045012 | 68 | 242 | 0.0 | 4.3 | 0.00 | 0.00 | 0.00 | 60 | 1016.6 |
| 20260504044532 | 68 | 234 | 0.0 | 4.3 | 0.00 | 0.00 | 0.00 | 60 | 1016.7 |
| 20260504044011 | 68 | 267 | 0.0 | 2.6 | 0.00 | 0.00 | 0.00 | 59 | 1016.7 |
| 20260504043508 | 68 | 206 | 0.0 | 3.5 | 0.00 | 0.00 | 0.00 | 59 | 1016.6 |
| 20260504043028 | 68 | 220 | 0.0 | 4.3 | 0.00 | 0.00 | 0.00 | 59 | 1016.6 |
| 20260504042508 | 68 | 212 | 0.0 | 4.3 | 0.00 | 0.00 | 0.00 | 59 | 1016.7 |
| 20260504042009 | 69 | 211 | 0.0 | 7.0 | 0.00 | 0.00 | 0.00 | 59 | 1016.7 |
| 20260504041528 | 69 | 200 | 0.0 | 7.0 | 0.00 | 0.00 | 0.00 | 59 | 1016.7 |
| 20260504041011 | 69 | 238 | 0.0 | 4.3 | 0.00 | 0.00 | 0.00 | 60 | 1016.7 |
| 20260504040504 | 68 | 208 | 0.0 | 4.3 | 0.00 | 0.00 | 0.00 | 60 | 1016.7 |
| 20260504040021 | 68 | 211 | 0.0 | 2.6 | 0.00 | 0.00 | 0.00 | 60 | 1016.7 |
| 20260504035509 | 68 | 219 | 0.0 | 2.6 | 0.00 | 0.00 | 0.00 | 59 | 1016.7 |
| 20260504035006 | 69 | 202 | 0.0 | 5.2 | 0.00 | 0.00 | 0.00 | 59 | 1016.8 |
| 20260504034534 | 69 | 217 | 0.0 | 5.2 | 0.00 | 0.00 | 0.00 | 59 | 1016.7 |
| 20260504034006 | 69 | 186 | 0.0 | 3.5 | 0.00 | 0.00 | 0.00 | 59 | 1016.7 |
| 20260504033507 | 69 | 185 | 0.0 | 4.3 | 0.00 | 0.00 | 0.00 | 58 | 1016.7 |
| 20260504033024 | 69 | 182 | 0.0 | 4.3 | 0.00 | 0.00 | 0.00 | 57 | 1016.7 |
| 20260504032507 | 69 | 194 | 0.0 | 1.7 | 0.00 | 0.00 | 0.00 | 57 | 1016.7 |
| 20260504032011 | 69 | 198 | 0.0 | 3.5 | 0.00 | 0.00 | 0.00 | 57 | 1016.6 |
| 20260504031526 | 70 | 255 | 0.0 | 3.5 | 0.00 | 0.00 | 0.00 | 57 | 1016.5 |
| 20260504031010 | 70 | 221 | 0.0 | 3.5 | 0.00 | 0.00 | 0.00 | 57 | 1016.4 |
| 20260504030512 | 70 | 205 | 0.0 | 5.2 | 0.00 | 0.00 | 0.00 | 57 | 1016.4 |
| 20260504030039 | 70 | 185 | 0.0 | 5.2 | 0.00 | 0.00 | 0.00 | 56 | 1016.4 |
| 20260504025507 | 70 | 206 | 0.0 | 3.5 | 0.00 | 0.00 | 0.00 | 56 | 1016.4 |
| 20260504025004 | 71 | 207 | 0.0 | 2.6 | 0.00 | 0.00 | 0.00 | 56 | 1016.4 |
| 20260504024522 | 71 | 202 | 0.0 | 3.5 | 0.00 | 0.00 | 0.00 | 56 | 1016.4 |
| 20260504024007 | 71 | 214 | 0.0 | 3.5 | 0.00 | 0.00 | 0.00 | 55 | 1016.4 |
| 20260504023507 | 71 | 201 | 0.0 | 5.2 | 0.00 | 0.00 | 0.00 | 55 | 1016.4 |
| 20260504023005 | 71 | 202 | 0.0 | 5.2 | 0.00 | 0.00 | 0.00 | 54 | 1016.4 |
| 20260504022503 | 72 | 229 | 0.0 | 4.3 | 0.00 | 0.00 | 0.00 | 54 | 1016.4 |
| 20260504022004 | 72 | 207 | 0.0 | 3.5 | 0.00 | 0.00 | 0.00 | 53 | 1016.4 |
| 20260504021510 | 72 | 193 | 0.0 | 3.5 | 0.00 | 0.00 | 0.00 | 53 | 1016.4 |
| 20260504021003 | 72 | 287 | 0.0 | 2.6 | 0.00 | 0.00 | 0.00 | 52 | 1016.3 |
| 20260504020508 | 72 | 211 | 0.0 | 3.5 | 0.00 | 0.00 | 0.00 | 51 | 1016.2 |
| 20260504020012 | 73 | 200 | 0.0 | 3.5 | 0.00 | 0.00 | 0.00 | 51 | 1016.2 |
| 20260504015504 | 73 | 360 | 0.0 | 3.5 | 0.00 | 0.00 | 0.00 | 50 | 1016.2 |
| 20260504015004 | 73 | 204 | 0.0 | 3.5 | 0.00 | 0.00 | 0.00 | 49 | 1016.2 |
| 20260504014533 | 73 | 211 | 0.0 | 3.5 | 0.00 | 0.00 | 0.00 | 48 | 1016.2 |
| 20260504014010 | 74 | 221 | 0.0 | 4.3 | 0.00 | 0.00 | 0.00 | 48 | 1016.2 |
| 20260504013507 | 74 | 229 | 0.0 | 4.3 | 0.00 | 0.00 | 0.00 | 47 | 1016.2 |
| 20260504013021 | 74 | 213 | 0.0 | 4.3 | 0.00 | 0.00 | 0.00 | 47 | 1016.2 |
| 20260504012508 | 74 | 202 | 0.0 | 4.3 | 0.00 | 0.00 | 0.00 | 46 | 1016.2 |
| 20260504012003 | 75 | 203 | 0.0 | 4.3 | 0.00 | 0.00 | 0.00 | 45 | 1016.1 |
| 20260504011505 | 75 | 177 | 0.0 | 4.3 | 0.00 | 0.00 | 0.00 | 45 | 1016.1 |
| 20260504011005 | 75 | 202 | 0.0 | 4.3 | 0.00 | 0.00 | 0.00 | 44 | 1016.0 |
| 20260504010504 | 76 | 360 | 0.0 | 3.5 | 0.00 | 0.00 | 0.00 | 44 | 1016.0 |
| 20260504010015 | 76 | 360 | 0.9 | 3.5 | 0.00 | 0.00 | 0.00 | 43 | 1016.0 |
| 20260504005503 | 76 | 209 | 0.9 | 4.3 | 0.00 | 0.00 | 0.00 | 43 | 1015.9 |
| 20260504005004 | 77 | 200 | 0.0 | 5.2 | 0.00 | 0.00 | 0.00 | 43 | 1015.9 |
| 20260504004517 | 77 | 176 | 0.0 | 7.0 | 0.00 | 0.00 | 0.00 | 42 | 1015.9 |
| 20260504004004 | 78 | 174 | 0.0 | 7.0 | 0.00 | 0.00 | 0.00 | 41 | 1015.9 |
| 20260504003507 | 79 | 223 | 0.9 | 5.2 | 0.00 | 0.00 | 0.00 | 40 | 1015.9 |
| 20260504003028 | 79 | 360 | 0.9 | 8.7 | 0.00 | 0.00 | 0.00 | 41 | 1016.0 |
| 20260504002507 | 79 | 211 | 1.7 | 8.7 | 0.00 | 0.00 | 0.00 | 40 | 1015.9 |
| 20260504002008 | 80 | 215 | 1.7 | 7.0 | 0.00 | 0.00 | 0.00 | 40 | 1016.0 |
| 20260504001522 | 80 | 209 | 1.7 | 7.0 | 0.00 | 0.00 | 0.00 | 39 | 1016.0 |
| 20260504001003 | 80 | 210 | 0.9 | 8.7 | 0.00 | 0.00 | 0.00 | 39 | 1016.0 |
| 20260504000503 | 80 | 360 | 1.7 | 8.7 | 0.00 | 0.00 | 0.00 | 38 | 1016.1 |
| 20260504000005 | 80 | 197 | 0.9 | 7.8 | 0.00 | 0.00 | 0.00 | 38 | 1016.1 |
| 20260503235504 | 80 | 360 | 0.9 | 7.8 | 0.00 | 0.00 | 0.00 | 39 | 1016.1 |
| 20260503235008 | 80 | 142 | 2.6 | 7.8 | 0.00 | 0.00 | 0.00 | 38 | 1016.1 |
| 20260503234527 | 81 | 142 | 2.6 | 7.8 | 0.00 | 0.00 | 0.00 | 39 | 1016.0 |
| 20260503234003 | 81 | 172 | 1.7 | 8.7 | 0.00 | 0.00 | 0.00 | 39 | 1016.2 |
| 20260503233504 | 81 | 190 | 0.9 | 9.6 | 0.00 | 0.00 | 0.00 | 39 | 1016.2 |
| 20260503233018 | 81 | 129 | 1.7 | 12.2 | 0.00 | 0.00 | 0.00 | 38 | 1016.2 |
| 20260503232504 | 82 | 194 | 3.5 | 12.2 | 0.00 | 0.00 | 0.00 | 38 | 1016.2 |
| 20260503232008 | 82 | 194 | 3.5 | 9.6 | 0.00 | 0.00 | 0.00 | 38 | 1016.2 |
| 20260503231523 | 82 | 152 | 0.9 | 4.3 | 0.00 | 0.00 | 0.00 | 39 | 1016.2 |
| 20260503231009 | 82 | 186 | 0.0 | 7.0 | 0.00 | 0.00 | 0.00 | 39 | 1016.3 |
| 20260503230506 | 83 | 190 | 1.7 | 7.8 | 0.00 | 0.00 | 0.00 | 38 | 1016.3 |
| 20260503230024 | 83 | 360 | 1.7 | 7.8 | 0.00 | 0.00 | 0.00 | 37 | 1016.2 |
| 20260503225503 | 83 | 159 | 0.9 | 9.6 | 0.00 | 0.00 | 0.00 | 37 | 1016.3 |
| 20260503225005 | 83 | 171 | 1.7 | 9.6 | 0.00 | 0.00 | 0.00 | 36 | 1016.4 |
| 20260503224527 | 83 | 234 | 1.7 | 8.7 | 0.00 | 0.00 | 0.00 | 35 | 1016.4 |
| 20260503224004 | 84 | 360 | 0.0 | 7.8 | 0.00 | 0.00 | 0.00 | 34 | 1016.5 |
| 20260503223503 | 84 | 360 | 1.7 | 7.8 | 0.00 | 0.00 | 0.00 | 33 | 1016.6 |
| 20260503223014 | 84 | 235 | 0.9 | 7.8 | 0.00 | 0.00 | 0.00 | 35 | 1016.6 |
| 20260503222507 | 84 | 221 | 0.9 | 8.7 | 0.00 | 0.00 | 0.00 | 35 | 1016.6 |
| 20260503222008 | 84 | 84 | 0.9 | 8.7 | 0.00 | 0.00 | 0.00 | 35 | 1016.6 |
| 20260503221520 | 84 | 360 | 0.9 | 13.0 | 0.00 | 0.00 | 0.00 | 35 | 1016.7 |
| 20260503221009 | 84 | 360 | 1.7 | 13.0 | 0.00 | 0.00 | 0.00 | 34 | 1016.8 |
| 20260503220513 | 84 | 360 | 0.9 | 9.6 | 0.00 | 0.00 | 0.00 | 35 | 1017.0 |
| 20260503220024 | 84 | 60 | 1.7 | 9.6 | 0.00 | 0.00 | 0.00 | 35 | 1017.0 |
| 20260503215511 | 84 | 143 | 0.0 | 6.1 | 0.00 | 0.00 | 0.00 | 34 | 1017.0 |
| 20260503215009 | 84 | 184 | 0.0 | 8.7 | 0.00 | 0.00 | 0.00 | 35 | 1017.0 |
| 20260503214527 | 84 | 110 | 1.7 | 10.4 | 0.00 | 0.00 | 0.00 | 33 | 1017.0 |
| 20260503214004 | 84 | 240 | 2.6 | 10.4 | 0.00 | 0.00 | 0.00 | 34 | 1017.0 |
| 20260503213505 | 84 | 265 | 1.7 | 8.7 | 0.00 | 0.00 | 0.00 | 34 | 1017.0 |
| 20260503213011 | 84 | 198 | 0.9 | 8.7 | 0.00 | 0.00 | 0.00 | 33 | 1017.1 |
| 20260503212504 | 85 | 360 | 1.7 | 10.4 | 0.00 | 0.00 | 0.00 | 33 | 1017.3 |
| 20260503212003 | 85 | 169 | 2.6 | 10.4 | 0.00 | 0.00 | 0.00 | 32 | 1017.4 |
| 20260503211517 | 85 | 249 | 0.9 | 10.4 | 0.00 | 0.00 | 0.00 | 31 | 1017.5 |
| 20260503211004 | 85 | 360 | 2.6 | 9.6 | 0.00 | 0.00 | 0.00 | 32 | 1017.6 |
| 20260503210510 | 85 | 360 | 0.0 | 9.6 | 0.00 | 0.00 | 0.00 | 33 | 1017.7 |
| 20260503210029 | 85 | 246 | 0.9 | 7.8 | 0.00 | 0.00 | 0.00 | 32 | 1017.8 |
| 20260503205509 | 85 | 220 | 0.9 | 7.8 | 0.00 | 0.00 | 0.00 | 33 | 1017.8 |
| 20260503205005 | 85 | 288 | 0.0 | 7.8 | 0.00 | 0.00 | 0.00 | 32 | 1017.9 |
| 20260503204542 | 85 | 162 | 1.7 | 7.8 | 0.00 | 0.00 | 0.00 | 32 | 1018.0 |
| 20260503204009 | 85 | 141 | 0.0 | 7.8 | 0.00 | 0.00 | 0.00 | 33 | 1017.9 |
| 20260503203510 | 86 | 221 | 1.7 | 7.0 | 0.00 | 0.00 | 0.00 | 32 | 1018.1 |
| 20260503203026 | 86 | 214 | 0.0 | 5.2 | 0.00 | 0.00 | 0.00 | 33 | 1018.3 |
| 20260503202504 | 86 | 250 | 0.0 | 7.8 | 0.00 | 0.00 | 0.00 | 32 | 1018.3 |
| 20260503202005 | 85 | 232 | 0.9 | 7.8 | 0.00 | 0.00 | 0.00 | 34 | 1018.5 |
| 20260503201514 | 85 | 238 | 0.0 | 8.7 | 0.00 | 0.00 | 0.00 | 35 | 1018.6 |
| 20260503201007 | 84 | 229 | 0.9 | 10.4 | 0.00 | 0.00 | 0.00 | 34 | 1018.7 |
| 20260503200507 | 85 | 360 | 6.1 | 10.4 | 0.00 | 0.00 | 0.00 | 35 | 1018.7 |
| 20260503200019 | 85 | 281 | 0.9 | 12.2 | 0.00 | 0.00 | 0.00 | 36 | 1018.8 |
| 20260503195506 | 85 | 360 | 3.5 | 12.2 | 0.00 | 0.00 | 0.00 | 35 | 1018.9 |
| 20260503195009 | 85 | 243 | 2.6 | 9.6 | 0.00 | 0.00 | 0.00 | 35 | 1018.9 |
| 20260503194523 | 85 | 241 | 1.7 | 9.6 | 0.00 | 0.00 | 0.00 | 35 | 1018.9 |
| 20260503194008 | 85 | 360 | 0.9 | 7.8 | 0.00 | 0.00 | 0.00 | 34 | 1019.0 |
| 20260503193508 | 85 | 360 | 1.7 | 9.6 | 0.00 | 0.00 | 0.00 | 35 | 1019.1 |
| 20260503193033 | 84 | 250 | 2.6 | 9.6 | 0.00 | 0.00 | 0.00 | 34 | 1019.2 |
| 20260503192510 | 84 | 225 | 0.9 | 11.3 | 0.00 | 0.00 | 0.00 | 35 | 1019.2 |
| 20260503192013 | 84 | 241 | 1.7 | 11.3 | 0.00 | 0.00 | 0.00 | 36 | 1019.2 |
| 20260503191525 | 84 | 360 | 6.1 | 10.4 | 0.00 | 0.00 | 0.00 | 37 | 1019.3 |
| 20260503191010 | 83 | 360 | 0.0 | 11.3 | 0.00 | 0.00 | 0.00 | 39 | 1019.3 |
| 20260503190505 | 83 | 253 | 1.7 | 11.3 | 0.00 | 0.00 | 0.00 | 36 | 1019.3 |
| 20260503190015 | 83 | 360 | 5.2 | 12.2 | 0.00 | 0.00 | 0.00 | 38 | 1019.4 |
| 20260503185507 | 83 | 360 | 4.3 | 12.2 | 0.00 | 0.00 | 0.00 | 37 | 1019.4 |
| 20260503185007 | 83 | 360 | 4.3 | 9.6 | 0.00 | 0.00 | 0.00 | 37 | 1019.6 |
| 20260503184533 | 83 | 246 | 4.3 | 8.7 | 0.00 | 0.00 | 0.00 | 36 | 1019.6 |
| 20260503184008 | 83 | 215 | 1.7 | 7.8 | 0.00 | 0.00 | 0.00 | 38 | 1019.6 |
| 20260503183507 | 83 | 360 | 0.9 | 10.4 | 0.00 | 0.00 | 0.00 | 38 | 1019.8 |
| 20260503183025 | 83 | 360 | 5.2 | 10.4 | 0.00 | 0.00 | 0.00 | 38 | 1019.9 |
| 20260503182507 | 83 | 360 | 0.9 | 8.7 | 0.00 | 0.00 | 0.00 | 39 | 1020.0 |
| 20260503182009 | 82 | 360 | 4.3 | 13.9 | 0.00 | 0.00 | 0.00 | 39 | 1020.1 |
| 20260503181526 | 82 | 144 | 3.5 | 13.9 | 0.00 | 0.00 | 0.00 | 38 | 1020.2 |
| 20260503181006 | 82 | 283 | 4.3 | 10.4 | 0.00 | 0.00 | 0.00 | 40 | 1020.3 |
| 20260503180508 | 82 | 221 | 1.7 | 9.6 | 0.00 | 0.00 | 0.00 | 39 | 1020.5 |
| 20260503180026 | 82 | 205 | 1.7 | 9.6 | 0.00 | 0.00 | 0.00 | 40 | 1020.5 |
| 20260503175503 | 82 | 236 | 1.7 | 11.3 | 0.00 | 0.00 | 0.00 | 41 | 1020.6 |
| 20260503175008 | 82 | 158 | 0.9 | 12.2 | 0.00 | 0.00 | 0.00 | 41 | 1020.6 |
| 20260503174518 | 82 | 360 | 1.7 | 12.2 | 0.00 | 0.00 | 0.00 | 43 | 1020.7 |
| 20260503174008 | 82 | 360 | 2.6 | 12.2 | 0.00 | 0.00 | 0.00 | 43 | 1020.8 |
| 20260503173507 | 82 | 237 | 0.0 | 7.8 | 0.00 | 0.00 | 0.00 | 44 | 1020.9 |
| 20260503173018 | 81 | 226 | 0.9 | 9.6 | 0.00 | 0.00 | 0.00 | 43 | 1021.0 |
| 20260503172508 | 80 | 360 | 1.7 | 10.4 | 0.00 | 0.00 | 0.00 | 45 | 1021.0 |
| 20260503172007 | 81 | 360 | 3.5 | 12.2 | 0.00 | 0.00 | 0.00 | 44 | 1021.1 |
| 20260503171526 | 80 | 249 | 6.1 | 12.2 | 0.00 | 0.00 | 0.00 | 43 | 1021.1 |
| 20260503171006 | 80 | 271 | 1.7 | 11.3 | 0.00 | 0.00 | 0.00 | 45 | 1021.3 |
| 20260503170511 | 80 | 360 | 6.1 | 13.0 | 0.00 | 0.00 | 0.00 | 44 | 1021.3 |
| 20260503151006 | 76 | 227 | 2.6 | 8.7 | 0.00 | 0.00 | 0.00 | 51 | 1021.8 |
| 20260503150503 | 76 | 360 | 0.9 | 7.0 | 0.00 | 0.00 | 0.00 | 51 | 1021.8 |
| 20260503131005 | 66 | 227 | 0.0 | 0.0 | 0.00 | 0.00 | 0.00 | 66 | 1021.6 |
| 20260503130503 | 65 | 227 | 0.0 | 0.0 | 0.00 | 0.00 | 0.00 | 68 | 1021.6 |
| 20260503110504 | 54 | 227 | 0.0 | 0.0 | 0.00 | 0.00 | 0.00 | 77 | 1020.7 |